This is the latest recevied weather packets stored in our database for station/object wb2ifs-13. If no packets are shown the sender has not sent any weather packets the latest 10 day(s).
| Time | Temp. | Humidity | Pressure | Rain* | Wind** | Luminosity | Snow |
|---|---|---|---|---|---|---|---|
| 1777732199 | 11.67° C | 62% | 1014.6 hPa | 0 mm | - | - | - |
| 1777731298 | 11.67° C | 66% | 1014.8 hPa | 0 mm | - | - | - |
| 1777730401 | 11.11° C | 67% | 1014.7 hPa | 0 mm | - | - | - |
| 1777729498 | 11.11° C | 70% | 1014.8 hPa | 0 mm | - | - | - |
| 1777728599 | 10.56° C | 73% | 1014.9 hPa | 0 mm | - | - | - |
| 1777727698 | 10° C | 73% | 1015 hPa | 0 mm | - | - | - |
| 1777726801 | 10° C | 73% | 1014.8 hPa | 0 mm | - | - | - |
| 1777725898 | 10° C | 76% | 1014.9 hPa | 0 mm | - | - | - |
| 1777724998 | 9.44° C | 77% | 1014.7 hPa | 0 mm | - | - | - |
| 1777724098 | 9.44° C | 79% | 1014.8 hPa | 0 mm | - | - | - |
| 1777723199 | 9.44° C | 80% | 1014.7 hPa | 0 mm | - | - | - |
| 1777722298 | 8.89° C | 80% | 1014.7 hPa | 0 mm | - | - | - |
| 1777721399 | 8.89° C | 76% | 1014.7 hPa | 0 mm | - | - | - |
| 1777720498 | 8.89° C | 83% | 1014.6 hPa | 0 mm | - | - | - |
| 1777719601 | 8.33° C | 87% | 1014.4 hPa | 0 mm | - | - | - |
| 1777718698 | 8.33° C | 87% | 1014.3 hPa | 0 mm | - | - | - |
| 1777717798 | 8.33° C | 89% | 1014.3 hPa | 0 mm | - | - | - |
| 1777716899 | 8.33° C | 86% | 1014.2 hPa | 0 mm | - | - | - |
| 1777716001 | 8.33° C | 87% | 1014 hPa | 0 mm | - | - | - |
| 1777715099 | 8.33° C | 87% | 1013.6 hPa | 0 mm | - | - | - |
| 1777714198 | 8.89° C | 91% | 1013.5 hPa | 0 mm | - | - | - |
| 1777713300 | 8.89° C | 91% | 1013.5 hPa | 0 mm | - | - | - |
| 1777712400 | 8.89° C | 93% | 1013.4 hPa | 0 mm | - | - | - |
| 1777711498 | 8.89° C | 95% | 1013.2 hPa | 0 mm | - | - | - |
| 1777710599 | 8.89° C | 95% | 1013.2 hPa | 0 mm | - | - | - |
* Rain latest hour (hover to see other rain measurements)
** Current wind speed in m/s (hover to see current wind gust speed)